KK6DR Weather Reports


time (UTC)temp
C
wind
direction
speed
KPH
gust
KPH
rain 1hr
cm
rain 24hr
cm
rain mn
cm
humidity
%
barometer
mb
20260505153055 12 0 0.0 6.4 0.00 0.05 0.03 92 1016.0
20260505151601 12 178 0.0 6.4 0.00 0.05 0.03 92 1016.0
20260505140111 11 26 0.0 3.2 0.00 0.05 0.03 92 1015.6
20260505124557 11 105 0.0 3.2 0.00 0.05 0.03 92 1015.1
20260505123056 11 153 0.0 4.8 0.00 0.05 0.03 92 1015.0
20260505121600 11 0 0.0 3.2 0.00 0.05 0.03 92 1015.1
20260505120111 11 168 1.6 3.2 0.00 0.05 0.03 92 1014.9
20260505114559 11 146 0.0 6.4 0.00 0.08 0.03 92 1015.0
20260505113106 11 162 0.0 4.8 0.00 0.08 0.03 92 1014.9
20260505111605 11 221 0.0 4.8 0.00 0.08 0.03 92 1014.9
20260505110105 11 0 1.6 4.8 0.00 0.08 0.03 92 1015.0
20260505101604 11 144 3.2 8.0 0.00 0.08 0.03 92 1014.9
20260505100106 11 0 4.8 11.3 0.00 0.08 0.03 92 1014.9
20260505094602 11 146 1.6 11.3 0.00 0.08 0.03 92 1014.8
20260505093058 11 178 3.2 11.3 0.00 0.08 0.03 91 1014.9
20260505091555 11 178 1.6 8.0 0.00 0.08 0.03 91 1014.9
20260505090058 11 157 3.2 11.3 0.03 0.08 0.03 91 1014.6
20260505084555 11 205 4.8 11.3 0.03 0.08 0.03 91 1014.7
20260505083105 11 165 1.6 6.4 0.03 0.08 0.03 91 1014.6
20260505081555 11 0 1.6 16.1 0.03 0.08 0.03 91 1014.4
20260505080054 11 124 1.6 6.4 0.00 0.05 0.00 91 1014.4
20260505074552 11 196 1.6 6.4 0.00 0.05 0.00 91 1014.4
20260505073055 11 165 1.6 8.0 0.00 0.05 0.00 91 1014.4
20260505071559 11 193 3.2 8.0 0.00 0.05 0.00 91 1014.4
20260505064557 11 137 3.2 12.9 0.03 0.05 0.05 90 1014.5
20260505063052 11 207 4.8 14.5 0.03 0.05 0.05 90 1014.6
20260505061613 11 178 1.6 4.8 0.03 0.05 0.05 90 1014.5
20260505060059 11 221 0.0 4.8 0.00 0.03 0.03 90 1014.6
20260505054556 11 160 1.6 6.4 0.00 0.03 0.03 90 1014.7
20260505053057 11 144 1.6 8.0 0.00 0.03 0.03 90 1014.6
20260505051553 12 144 1.6 6.4 0.00 0.03 0.03 89 1014.6
20260505041601 12 0 3.2 8.0 0.00 0.03 0.03 88 1014.4
20260505034550 12 200 3.2 14.5 0.00 0.03 0.03 87 1014.1
20260505033101 12 198 4.8 14.5 0.00 0.03 0.03 85 1013.9
20260505031556 12 163 1.6 6.4 0.00 0.03 0.03 84 1013.9
20260505030052 12 144 1.6 9.7 0.00 0.03 0.03 84 1013.7
20260505024554 12 163 1.6 8.0 0.00 0.03 0.03 84 1013.7
20260505023052 13 198 3.2 11.3 0.00 0.03 0.03 83 1013.7
20260505021552 13 202 4.8 12.9 0.00 0.03 0.03 82 1013.8
20260505020057 13 205 4.8 11.3 0.00 0.03 0.03 81 1013.7
20260505014555 13 234 4.8 16.1 0.00 0.03 0.03 81 1013.7
20260505013053 13 205 3.2 11.3 0.00 0.03 0.03 79 1014.0
20260505011551 13 193 4.8 12.9 0.00 0.03 0.03 79 1014.0
20260505010103 13 213 6.4 16.1 0.00 0.03 0.03 78 1014.1
20260505004557 14 163 6.4 16.1 0.00 0.03 0.03 78 1014.1
20260505003053 14 209 11.3 19.3 0.00 0.03 0.03 77 1014.2
20260505001554 15 183 8.0 19.3 0.00 0.03 0.03 77 1014.3
20260505000106 15 205 6.4 17.7 0.00 0.03 0.03 76 1014.4
20260504234604 15 216 8.0 22.5 0.00 0.03 0.03 75 1014.3
20260504233051 15 183 11.3 22.5 0.00 0.03 0.03 75 1014.3
20260504231556 15 208 9.7 22.5 0.00 0.03 0.03 75 1014.3
20260504230055 15 196 11.3 20.9 0.00 0.03 0.03 76 1014.3
20260504224556 15 178 8.0 22.5 0.00 0.03 0.03 75 1014.3
20260504223056 16 144 9.7 22.5 0.00 0.03 0.03 74 1014.5
20260504221559 16 184 9.7 24.1 0.00 0.03 0.03 72 1014.6
20260504220103 15 155 8.0 20.9 0.00 0.03 0.03 75 1014.7
20260504214558 15 208 11.3 22.5 0.00 0.03 0.03 76 1014.7
20260504213112 15 221 9.7 24.1 0.00 0.03 0.03 76 1014.8
20260504211557 15 261 9.7 24.1 0.00 0.03 0.03 76 1014.7
20260504210105 16 225 9.7 24.1 0.00 0.03 0.03 74 1014.8
20260504204603 16 191 8.0 17.7 0.00 0.03 0.03 76 1014.9
20260504203057 15 198 8.0 17.7 0.00 0.03 0.03 78 1015.0
20260504201553 15 221 6.4 19.3 0.00 0.03 0.03 79 1015.1
20260504200055 14 153 6.4 19.3 0.00 0.03 0.03 82 1015.0
20260504194559 13 244 8.0 19.3 0.00 0.03 0.03 82 1014.9
20260504193112 13 200 8.0 24.1 0.00 0.03 0.03 84 1014.7
20260504191555 13 221 9.7 22.5 0.00 0.03 0.03 85 1014.7
20260504190106 13 207 6.4 17.7 0.00 0.03 0.03 85 1014.8
20260504184554 13 205 4.8 17.7 0.00 0.03 0.03 86 1014.7
20260504183101 13 211 8.0 19.3 0.00 0.03 0.03 87 1014.6
20260504181557 13 182 9.7 20.9 0.00 0.03 0.03 89 1014.5
20260504180137 13 223 8.0 17.7 0.00 0.03 0.03 89 1014.5
20260504174600 13 210 4.8 16.1 0.00 0.03 0.03 90 1014.5
20260504173057 13 219 4.8 17.7 0.00 0.03 0.03 90 1014.4
20260504171601 12 193 8.0 16.1 0.00 0.03 0.03 90 1014.3
20260504160105 12 238 4.8 11.3 0.00 0.03 0.03 92 1014.1